FW6990 Weather Reports


time (UTC)temp
C
wind
direction
speed
KPH
gust
KPH
rain 1hr
cm
rain 24hr
cm
rain mn
cm
humidity
%
barometer
mb
20260507153100 15 52 1.6 4.8 0.00 0.15 0.15 52 1012.7
20260507152556 15 49 4.8 12.9 0.00 0.15 0.15 49 1012.7
20260507152052 15 50 4.8 11.3 0.00 0.15 0.15 49 1013.0
20260507151548 15 333 8.0 8.0 0.00 0.15 0.15 51 1012.8
20260507151045 15 348 1.6 9.7 0.00 0.15 0.15 51 1012.9
20260507150543 15 341 4.8 6.4 0.00 0.15 0.15 52 1013.4
20260507150039 14 62 1.6 6.4 0.00 0.15 0.15 52 1013.2
20260507145534 15 348 1.6 8.0 0.00 0.15 0.15 54 1013.4
20260507145032 13 52 3.2 8.0 0.00 0.15 0.15 55 1013.1
20260507144528 13 32 6.4 9.7 0.00 0.15 0.15 55 1013.2
20260507144026 13 325 8.0 9.7 0.00 0.15 0.15 53 1013.2
20260507143523 14 354 1.6 11.3 0.00 0.15 0.15 52 1013.3
20260507143021 14 67 3.2 8.0 0.00 0.15 0.15 54 1013.5
20260507142515 13 305 3.2 6.4 0.00 0.15 0.15 57 1013.5
20260507142013 13 92 3.2 6.4 0.00 0.15 0.15 58 1013.5
20260507141509 13 329 4.8 4.8 0.00 0.15 0.15 58 1013.5
20260507141007 13 40 0.0 8.0 0.00 0.15 0.15 60 1013.3
20260507140503 12 134 1.6 6.4 0.00 0.15 0.15 58 1013.5
20260507140000 12 15 3.2 6.4 0.00 0.15 0.15 57 1013.6
20260507135457 12 35 3.2 4.8 0.00 0.15 0.15 57 1013.6
20260507134954 12 342 6.4 9.7 0.00 0.15 0.15 58 1013.6
20260507134450 12 220 6.4 6.4 0.00 0.15 0.15 60 1013.5
20260507133946 12 256 4.8 11.3 0.00 0.15 0.15 60 1013.7
20260507133442 12 12 8.0 8.0 0.00 0.15 0.15 60 1013.7
20260507132941 12 348 4.8 9.7 0.00 0.15 0.15 59 1013.5
20260507132437 12 57 3.2 14.5 0.00 0.15 0.15 62 1013.6
20260507131933 12 3 0.0 3.2 0.00 0.15 0.15 65 1013.5
20260507131431 12 305 3.2 8.0 0.00 0.15 0.15 66 1013.6
20260507130928 12 341 0.0 6.4 0.00 0.15 0.15 66 1013.8
20260507130425 12 71 6.4 8.0 0.00 0.15 0.15 67 1013.6
20260507125923 12 151 3.2 4.8 0.00 0.15 0.15 71 1013.5
20260507125421 12 344 4.8 8.0 0.00 0.15 0.15 70 1013.5
20260507124918 12 137 1.6 8.0 0.00 0.15 0.15 72 1013.8
20260507124414 12 316 3.2 11.3 0.00 0.15 0.15 73 1013.4
20260507123913 12 64 1.6 11.3 0.00 0.15 0.15 74 1013.5
20260507123410 12 22 1.6 8.0 0.00 0.15 0.15 76 1013.5
20260507122906 12 50 3.2 6.4 0.00 0.15 0.15 79 1013.7
20260507122401 12 269 0.0 6.4 0.00 0.15 0.15 79 1013.5
20260507121858 12 89 0.0 4.8 0.00 0.15 0.15 80 1013.3
20260507121353 12 30 0.0 3.2 0.00 0.15 0.15 80 1013.3
20260507120850 11 28 0.0 4.8 0.00 0.15 0.15 80 1013.3
20260507120346 11 273 0.0 3.2 0.00 0.15 0.15 80 1013.2
20260507115842 11 60 0.0 4.8 0.00 0.15 0.15 81 1013.2
20260507115338 11 108 0.0 1.6 0.00 0.15 0.15 82 1013.2
20260507114834 11 145 0.0 0.0 0.00 0.15 0.15 81 1013.1
20260507114331 11 47 0.0 3.2 0.00 0.15 0.15 81 1013.4
20260507113829 11 89 0.0 3.2 0.00 0.15 0.15 82 1013.4
20260507113326 11 352 0.0 3.2 0.00 0.15 0.15 82 1013.5
20260507112823 11 67 0.0 4.8 0.00 0.15 0.15 82 1013.3
20260507112320 11 32 1.6 3.2 0.00 0.15 0.15 83 1013.2
20260507111818 11 83 0.0 3.2 0.00 0.15 0.15 84 1013.0
20260507111314 11 67 3.2 4.8 0.00 0.15 0.15 85 1012.9
20260507110810 11 119 1.6 3.2 0.00 0.15 0.15 87 1012.7
20260507110307 11 72 0.0 1.6 0.00 0.15 0.15 89 1012.7
20260507105804 10 76 0.0 1.6 0.00 0.15 0.15 89 1012.9
20260507105300 10 126 0.0 0.0 0.00 0.15 0.15 91 1012.9
20260507104757 10 109 0.0 1.6 0.00 0.15 0.15 91 1012.4
20260507104253 10 133 0.0 1.6 0.00 0.15 0.15 91 1012.5
20260507103750 10 129 1.6 1.6 0.00 0.15 0.15 91 1012.5
20260507103246 10 49 0.0 1.6 0.00 0.15 0.15 91 1012.3
20260507102743 10 168 0.0 0.0 0.00 0.15 0.15 91 1012.3
20260507102240 10 124 0.0 0.0 0.00 0.15 0.15 90 1012.3
20260507101736 10 145 0.0 1.6 0.00 0.15 0.15 90 1012.2
20260507101231 10 164 0.0 3.2 0.00 0.15 0.15 89 1012.3
20260507100728 10 93 0.0 1.6 0.00 0.15 0.15 89 1012.3
20260507100227 10 132 1.6 3.2 0.05 0.15 0.15 89 1012.2
20260507095724 10 130 0.0 1.6 0.05 0.15 0.15 89 1012.3
20260507095220 10 41 1.6 1.6 0.00 0.15 0.15 88 1012.1
20260507094717 10 39 0.0 3.2 0.00 0.15 0.15 87 1012.1
20260507094215 10 110 0.0 1.6 0.00 0.15 0.15 87 1012.1
20260507093711 10 64 0.0 3.2 0.00 0.15 0.15 87 1012.0
20260507093210 10 135 0.0 1.6 0.00 0.15 0.15 86 1012.2
20260507092707 10 7 1.6 3.2 0.00 0.15 0.15 87 1012.1
20260507092203 10 334 3.2 4.8 0.00 0.15 0.15 86 1012.0
20260507091659 10 147 0.0 4.8 0.00 0.15 0.15 86 1012.1
20260507091156 10 11 0.0 4.8 0.00 0.15 0.15 86 1011.9
20260507090651 10 18 1.6 4.8 0.00 0.15 0.15 85 1012.1
20260507090149 10 41 0.0 4.8 0.00 0.15 0.15 85 1011.9
20260507085646 10 135 0.0 3.2 0.00 0.15 0.15 85 1011.9
20260507085142 10 144 0.0 3.2 0.00 0.15 0.15 85 1011.7
20260507084640 10 20 3.2 3.2 0.00 0.15 0.15 85 1012.0
20260507084136 10 119 0.0 4.8 0.00 0.15 0.15 85 1011.7
20260507083633 10 102 0.0 6.4 0.00 0.15 0.15 85 1011.6
20260507083130 10 14 1.6 8.0 0.00 0.15 0.15 85 1011.6
20260507082625 10 11 3.2 8.0 0.00 0.15 0.15 86 1011.6
20260507082122 10 74 0.0 4.8 0.00 0.15 0.15 85 1011.8
20260507081619 10 83 3.2 4.8 0.00 0.15 0.15 86 1011.8
20260507081115 10 335 3.2 6.4 0.00 0.15 0.15 85 1011.8
20260507080612 11 40 0.0 4.8 0.00 0.15 0.15 86 1011.7
20260507080108 11 329 0.0 4.8 0.00 0.15 0.15 85 1011.9
20260507075603 11 346 3.2 6.4 0.00 0.15 0.15 86 1011.9
20260507075100 11 344 8.0 9.7 0.00 0.15 0.15 86 1011.8
20260507074557 11 0 3.2 9.7 0.00 0.15 0.15 87 1011.6
20260507074055 11 7 3.2 4.8 0.00 0.15 0.15 87 1011.8
20260507073550 11 54 4.8 16.1 0.00 0.15 0.15 86 1011.7
20260507073047 11 314 0.0 6.4 0.00 0.15 0.15 86 1012.0
20260507072545 11 314 4.8 8.0 0.00 0.15 0.15 87 1012.0
20260507072042 11 8 4.8 8.0 0.00 0.15 0.15 86 1011.9
20260507071539 11 316 0.0 6.4 0.00 0.15 0.15 87 1012.2
20260507071036 11 196 1.6 8.0 0.00 0.15 0.15 87 1012.3
20260507070533 11 118 1.6 11.3 0.00 0.15 0.15 87 1012.2
20260507070030 11 351 6.4 9.7 0.00 0.15 0.15 87 1012.1
20260507065526 11 69 3.2 9.7 0.00 0.15 0.15 90 1012.2
20260507065023 11 101 1.6 6.4 0.00 0.15 0.15 90 1011.7
20260507064521 11 21 1.6 6.4 0.00 0.15 0.15 90 1011.8
20260507064020 11 17 0.0 8.0 0.00 0.15 0.15 90 1011.7
20260507063516 11 302 3.2 6.4 0.00 0.15 0.15 91 1011.4
20260507063014 11 191 0.0 9.7 0.05 0.15 0.15 91 1011.3
20260507062510 11 51 1.6 4.8 0.05 0.15 0.15 91 1011.3
20260507062008 11 290 0.0 6.4 0.00 0.15 0.15 91 1011.7
20260507061505 11 4 3.2 6.4 0.05 0.15 0.15 90 1011.6
20260507061003 12 29 3.2 8.0 0.05 0.15 0.15 89 1011.6
20260507060501 12 294 0.0 4.8 0.05 0.13 0.13 89 1012.0
20260507055956 12 36 4.8 8.0 0.30 0.13 0.13 88 1012.1
20260507055452 12 290 3.2 8.0 0.61 0.13 0.13 86 1011.7
20260507054949 13 175 3.2 8.0 0.18 0.03 0.03 84 1012.0
20260507054445 13 345 4.8 16.1 0.00 0.00 0.00 81 1012.0
20260507053942 13 347 3.2 4.8 0.00 0.00 0.00 81 1011.5
20260507053440 14 284 1.6 6.4 0.00 0.00 0.00 80 1011.0
20260507052938 14 104 3.2 4.8 0.00 0.00 0.00 80 1011.1
20260507052436 14 14 1.6 3.2 0.00 0.00 0.00 80 1011.5
20260507051932 14 354 0.0 4.8 0.00 0.00 0.00 79 1011.4
20260507051430 14 349 4.8 6.4 0.00 0.00 0.00 78 1011.0
20260507050927 14 307 0.0 14.5 0.00 0.00 0.00 77 1011.2
20260507050423 14 343 3.2 8.0 0.00 0.00 0.00 77 1011.2
20260507045921 14 310 3.2 8.0 0.00 0.00 0.00 78 1010.8
20260507045417 14 1 1.6 4.8 0.00 0.00 0.00 79 1010.4
20260507044914 14 345 3.2 8.0 0.00 0.00 0.00 78 1010.3
20260507044411 14 330 3.2 8.0 0.00 0.00 0.00 78 1010.4
20260507043907 15 350 4.8 6.4 0.00 0.00 0.00 80 1010.4
20260507043403 15 315 3.2 11.3 0.00 0.00 0.00 80 1010.8
20260507042900 15 65 4.8 9.7 0.00 0.00 0.00 82 1010.8
20260507042356 15 343 4.8 16.1 0.00 0.00 0.00 81 1010.7
20260507041852 15 89 0.0 8.0 0.00 0.00 0.00 83 1010.2
20260507041349 16 256 0.0 9.7 0.00 0.00 0.00 81 1010.6
20260507040846 17 310 3.2 9.7 0.00 0.00 0.00 80 1010.8
20260507040342 17 12 3.2 6.4 0.00 0.00 0.00 85 1010.3
20260507035838 17 126 0.0 3.2 0.00 0.00 0.00 84 1010.3
20260507035334 18 352 0.0 4.8 0.00 0.00 0.00 83 1010.1
20260507034832 18 301 3.2 4.8 0.00 0.00 0.00 82 1010.2
20260507034328 18 295 3.2 9.7 0.00 0.00 0.00 82 1010.3
20260507033826 18 308 0.0 6.4 0.00 0.00 0.00 82 1010.1
20260507033324 18 142 4.8 4.8 0.00 0.00 0.00 83 1010.3
20260507032815 18 324 1.6 4.8 0.00 0.00 0.00 82 1010.2
20260507032311 18 194 1.6 4.8 0.00 0.00 0.00 81 1010.0
20260507031808 18 233 0.0 1.6 0.00 0.00 0.00 81 1010.0
20260507031305 18 253 3.2 6.4 0.00 0.00 0.00 80 1009.9
20260507030801 18 244 3.2 4.8 0.00 0.00 0.00 80 1010.0
20260507030259 18 230 0.0 3.2 0.00 0.00 0.00 80 1009.8
20260507025756 18 140 3.2 3.2 0.00 0.00 0.00 80 1010.0
20260507025253 18 268 1.6 4.8 0.00 0.00 0.00 80 1009.9
20260507024751 18 255 1.6 3.2 0.00 0.00 0.00 80 1010.1
20260507024248 18 231 1.6 4.8 0.00 0.00 0.00 80 1010.1
20260507023743 19 246 3.2 3.2 0.00 0.00 0.00 80 1009.9
20260507023241 19 239 0.0 4.8 0.00 0.00 0.00 80 1009.7
20260507022738 19 229 0.0 1.6 0.00 0.00 0.00 80 1009.8
20260507022234 19 229 0.0 4.8 0.00 0.00 0.00 80 1009.9
20260507021730 19 167 1.6 3.2 0.00 0.00 0.00 80 1010.0
20260507021226 19 267 3.2 3.2 0.00 0.00 0.00 80 1010.1
20260507020724 18 188 0.0 4.8 0.00 0.00 0.00 80 1010.1
20260507020220 18 218 1.6 3.2 0.00 0.00 0.00 80 1010.1
20260507015718 18 224 0.0 3.2 0.00 0.00 0.00 80 1010.4
20260507015215 18 157 0.0 1.6 0.00 0.00 0.00 79 1010.1
20260507014712 19 230 3.2 3.2 0.00 0.00 0.00 79 1010.2
20260507014208 19 118 0.0 3.2 0.00 0.00 0.00 79 1010.0
20260507013705 19 269 0.0 3.2 0.00 0.00 0.00 79 1010.1
20260507013203 19 136 1.6 3.2 0.00 0.00 0.00 79 1009.9
20260507012700 19 235 3.2 3.2 0.00 0.00 0.00 78 1010.0
20260507012155 19 215 0.0 1.6 0.00 0.00 0.00 78 1010.1
20260507011653 19 223 0.0 3.2 0.00 0.00 0.00 77 1010.1
20260507011149 19 156 0.0 3.2 0.00 0.00 0.00 77 1009.8
20260507010643 19 210 0.0 3.2 0.00 0.00 0.00 77 1010.2
20260507010140 20 219 1.6 1.6 0.00 0.00 0.00 77 1010.1
20260507005638 20 249 0.0 4.8 0.00 0.00 0.00 77 1010.2
20260507005133 20 220 1.6 3.2 0.00 0.00 0.00 77 1010.3
20260507004630 19 230 3.2 4.8 0.00 0.00 0.00 77 1010.0
20260507004128 20 205 1.6 3.2 0.00 0.00 0.00 76 1009.8
20260507003624 20 168 1.6 1.6 0.00 0.00 0.00 76 1009.5
20260507003120 20 121 0.0 1.6 0.00 0.00 0.00 76 1009.4
20260507002616 20 229 0.0 1.6 0.00 0.00 0.00 75 1009.5
20260507002112 20 269 0.0 6.4 0.00 0.00 0.00 75 1009.4
20260507001609 20 271 3.2 4.8 0.00 0.00 0.00 74 1009.5
20260507001106 20 224 0.0 3.2 0.00 0.00 0.00 74 1009.4
20260507000602 20 217 0.0 3.2 0.00 0.00 0.00 74 1009.4
20260507000058 20 195 1.6 8.0 0.00 0.00 0.00 73 1009.4
20260506235555 20 159 0.0 4.8 0.00 0.00 0.00 73 1009.5
20260506235050 20 215 3.2 4.8 0.00 0.00 0.00 73 1009.3
20260506234548 20 254 1.6 3.2 0.00 0.00 0.00 73 1009.2
20260506234045 20 217 0.0 6.4 0.00 0.00 0.00 72 1009.4
20260506233542 20 268 1.6 8.0 0.00 0.00 0.00 72 1009.1
20260506233039 21 209 0.0 1.6 0.00 0.00 0.00 72 1009.2
20260506232535 21 158 1.6 3.2 0.00 0.00 0.00 71 1009.3
20260506232030 21 168 1.6 8.0 0.00 0.00 0.00 71 1009.2
20260506231528 21 257 3.2 3.2 0.00 0.00 0.00 71 1009.1
20260506231026 21 219 3.2 4.8 0.00 0.00 0.00 70 1009.1
20260506230522 21 211 0.0 3.2 0.00 0.00 0.00 70 1009.3
20260506230020 21 242 3.2 9.7 0.00 0.00 0.00 69 1009.4
20260506225516 21 182 3.2 8.0 0.00 0.00 0.00 69 1009.2
20260506225012 21 226 3.2 4.8 0.00 0.00 0.00 70 1009.3
20260506224509 21 264 6.4 8.0 0.00 0.00 0.00 70 1009.3
20260506224006 21 275 6.4 6.4 0.00 0.00 0.00 70 1009.3
20260506223501 21 206 0.0 4.8 0.00 0.00 0.00 70 1009.1
20260506222959 21 247 1.6 3.2 0.00 0.00 0.00 71 1009.0
20260506222455 21 320 0.0 4.8 0.00 0.00 0.00 71 1009.1
20260506221952 21 218 3.2 4.8 0.00 0.00 0.00 70 1009.1
20260506221449 21 230 0.0 8.0 0.00 0.00 0.00 70 1009.0
20260506220947 21 211 4.8 6.4 0.00 0.00 0.00 70 1009.1
20260506220442 21 191 1.6 4.8 0.00 0.00 0.00 69 1009.2
20260506215939 21 199 0.0 4.8 0.00 0.00 0.00 69 1009.0
20260506215436 21 238 3.2 6.4 0.00 0.00 0.00 69 1008.9
20260506214931 22 259 3.2 6.4 0.00 0.00 0.00 67 1009.2
20260506214428 22 177 6.4 8.0 0.00 0.00 0.00 64 1009.1
20260506213926 22 275 6.4 9.7 0.00 0.00 0.00 65 1009.0
20260506213424 23 236 6.4 9.7 0.00 0.00 0.00 62 1008.9
20260506212921 23 245 1.6 8.0 0.00 0.00 0.00 62 1008.9
20260506212416 23 246 3.2 6.4 0.00 0.00 0.00 63 1008.9
20260506211912 22 319 4.8 8.0 0.00 0.00 0.00 66 1008.8
20260506211408 21 293 9.7 12.9 0.00 0.00 0.00 69 1008.9
20260506210905 21 246 3.2 8.0 0.00 0.00 0.00 70 1008.9
20260506210402 21 278 11.3 19.3 0.00 0.00 0.00 69 1008.8
20260506205859 21 275 3.2 8.0 0.00 0.00 0.00 67 1008.9
20260506205355 22 249 8.0 9.7 0.00 0.00 0.00 66 1008.7
20260506204851 21 260 8.0 9.7 0.00 0.00 0.00 67 1008.8
20260506204349 21 259 9.7 12.9 0.00 0.00 0.00 66 1008.6
20260506203846 22 290 4.8 8.0 0.00 0.00 0.00 66 1008.6
20260506203343 21 208 6.4 8.0 0.00 0.00 0.00 68 1008.6
20260506202840 20 254 3.2 9.7 0.00 0.00 0.00 71 1008.6
20260506202337 20 211 3.2 9.7 0.00 0.00 0.00 71 1008.7
20260506201834 20 213 4.8 14.5 0.00 0.00 0.00 71 1008.6
20260506201331 20 284 6.4 16.1 0.00 0.00 0.00 71 1008.7
20260506200828 20 245 8.0 9.7 0.00 0.00 0.00 72 1008.7
20260506200324 20 262 4.8 12.9 0.00 0.00 0.00 72 1008.8
20260506195820 20 228 3.2 6.4 0.00 0.00 0.00 73 1008.7
20260506195318 20 262 4.8 14.5 0.00 0.00 0.00 72 1008.9
20260506194815 20 258 8.0 16.1 0.00 0.00 0.00 72 1009.0
20260506194311 20 249 4.8 4.8 0.00 0.00 0.00 73 1009.1
20260506193809 20 277 6.4 6.4 0.00 0.00 0.00 73 1009.1
20260506193305 19 221 1.6 9.7 0.00 0.00 0.00 74 1009.3
20260506192802 19 237 4.8 8.0 0.00 0.00 0.00 73 1009.2
20260506192259 19 322 6.4 8.0 0.00 0.00 0.00 74 1009.1
20260506191756 19 294 3.2 4.8 0.00 0.00 0.00 74 1009.3
20260506191252 19 231 3.2 8.0 0.00 0.00 0.00 74 1009.3
20260506190749 19 180 6.4 20.9 0.00 0.00 0.00 74 1009.5
20260506190245 19 199 4.8 9.7 0.00 0.00 0.00 74 1009.5
20260506185742 19 235 11.3 12.9 0.00 0.00 0.00 74 1009.3
20260506185239 19 197 1.6 8.0 0.00 0.00 0.00 75 1009.4
20260506184736 19 244 6.4 17.7 0.00 0.00 0.00 75 1009.4
20260506184233 19 228 9.7 9.7 0.00 0.00 0.00 76 1009.6
20260506183730 18 229 4.8 4.8 0.00 0.00 0.00 77 1009.5
20260506183226 18 278 3.2 8.0 0.00 0.00 0.00 77 1009.5
20260506182723 18 187 3.2 6.4 0.00 0.00 0.00 77 1009.6
20260506182220 18 282 4.8 4.8 0.00 0.00 0.00 78 1009.5
20260506181718 18 211 3.2 8.0 0.00 0.00 0.00 77 1009.7
20260506181216 18 249 1.6 8.0 0.00 0.00 0.00 77 1009.7
20260506180713 18 198 4.8 9.7 0.00 0.00 0.00 76 1009.7
20260506180208 19 233 8.0 12.9 0.00 0.00 0.00 73 1009.8
20260506175705 19 248 6.4 8.0 0.00 0.00 0.00 73 1009.8
20260506175202 19 159 4.8 8.0 0.00 0.00 0.00 72 1009.8
20260506174654 19 239 3.2 8.0 0.00 0.00 0.00 73 1009.7
20260506174151 19 355 1.6 8.0 0.00 0.00 0.00 73 1009.8
20260506173649 19 206 4.8 8.0 0.00 0.00 0.00 73 1009.9
20260506173145 19 187 4.8 8.0 0.00 0.00 0.00 73 1009.8
20260506172642 19 236 6.4 8.0 0.00 0.00 0.00 72 1009.9
20260506172139 19 193 4.8 11.3 0.00 0.00 0.00 72 1010.1
20260506171631 18 212 3.2 12.9 0.00 0.00 0.00 75 1010.0
20260506171129 18 222 4.8 6.4 0.00 0.00 0.00 75 1010.1
20260506170626 18 184 0.0 6.4 0.00 0.00 0.00 75 1010.1
20260506170123 19 219 4.8 8.0 0.00 0.00 0.00 75 1010.2
20260506165621 19 218 6.4 9.7 0.00 0.00 0.00 74 1010.2
20260506165117 20 205 4.8 17.7 0.00 0.00 0.00 74 1010.2
20260506164614 20 133 0.0 8.0 0.00 0.00 0.00 73 1010.3
20260506164112 20 252 1.6 8.0 0.00 0.00 0.00 73 1010.4
20260506163607 20 227 4.8 6.4 0.00 0.00 0.00 74 1010.2
20260506163103 20 187 0.0 6.4 0.00 0.00 0.00 72 1010.3
20260506162600 20 236 3.2 6.4 0.00 0.00 0.00 70 1010.7
20260506162057 20 230 4.8 8.0 0.00 0.00 0.00 70 1010.7
20260506161554 20 272 3.2 4.8 0.00 0.00 0.00 69 1011.0
20260506161051 20 227 4.8 4.8 0.00 0.00 0.00 68 1011.1
20260506160548 20 202 0.0 8.0 0.00 0.00 0.00 68 1011.4
20260506160045 20 179 6.4 8.0 0.00 0.00 0.00 66 1011.4
20260506155544 20 175 1.6 8.0 0.00 0.00 0.00 68 1011.4
20260506153715 20 222 3.2 6.4 0.00 0.00 0.00 66 1011.4